TimeEDT,TemperatureF,Dew PointF,Humidity,Sea Level PressureIn,VisibilityMPH,Wind Direction,Wind SpeedMPH,Gust SpeedMPH,PrecipitationIn,Events,Conditions,WindDirDegrees,DateUTC
12:53 AM,55.0,53.1,93,29.92,6.0,Calm,Calm,-,N/A,,Overcast,0,2013-10-17 04:53:00
1:16 AM,55.4,53.6,94,29.91,2.5,Calm,Calm,-,N/A,,Overcast,0,2013-10-17 05:16:00
1:27 AM,53.6,53.6,100,29.91,0.8,Calm,Calm,-,N/A,,Overcast,0,2013-10-17 05:27:00
1:40 AM,53.6,53.6,100,29.90,0.5,Calm,Calm,-,N/A,Fog,Fog,0,2013-10-17 05:40:00
1:53 AM,54.0,53.1,97,29.90,0.5,SSE,3.5,-,N/A,Fog,Fog,160,2013-10-17 05:53:00
2:53 AM,54.0,53.1,97,29.89,0.5,Calm,Calm,-,N/A,Fog,Fog,0,2013-10-17 06:53:00
3:53 AM,53.1,52.0,96,29.88,0.2,Calm,Calm,-,N/A,Fog,Fog,0,2013-10-17 07:53:00
4:27 AM,53.6,51.8,94,29.87,1.0,Calm,Calm,-,N/A,,Mostly Cloudy,0,2013-10-17 08:27:00
4:32 AM,53.6,51.8,94,29.87,2.0,Calm,Calm,-,N/A,,Scattered Clouds,0,2013-10-17 08:32:00
4:40 AM,51.8,50.0,94,29.87,0.8,Calm,Calm,-,N/A,,Mist,0,2013-10-17 08:40:00
4:53 AM,51.1,50.0,96,29.86,0.2,Calm,Calm,-,N/A,Fog,Fog,0,2013-10-17 08:53:00
5:53 AM,50.0,48.0,93,29.86,0.2,Calm,Calm,-,N/A,Fog,Fog,0,2013-10-17 09:53:00
6:17 AM,51.8,50.0,94,29.86,1.2,SSE,3.5,-,N/A,,Scattered Clouds,160,2013-10-17 10:17:00
6:21 AM,51.8,50.0,94,29.86,3.0,Calm,Calm,-,N/A,,Scattered Clouds,0,2013-10-17 10:21:00
6:44 AM,50.0,48.2,94,29.85,2.0,Calm,Calm,-,N/A,,Scattered Clouds,0,2013-10-17 10:44:00
6:51 AM,50.0,48.2,94,29.85,2.5,Calm,Calm,-,N/A,,Mostly Cloudy,0,2013-10-17 10:51:00
6:53 AM,48.9,48.9,100,29.86,1.8,Calm,Calm,-,N/A,,Mostly Cloudy,0,2013-10-17 10:53:00
7:12 AM,53.6,51.8,94,29.86,3.0,Calm,Calm,-,N/A,,Overcast,0,2013-10-17 11:12:00
7:28 AM,55.4,53.6,94,29.86,4.0,South,4.6,-,N/A,,Overcast,190,2013-10-17 11:28:00
7:53 AM,57.0,55.9,96,29.87,4.0,Calm,Calm,-,N/A,,Overcast,0,2013-10-17 11:53:00
8:19 AM,57.2,55.4,94,29.87,5.0,SW,5.8,-,N/A,,Overcast,220,2013-10-17 12:19:00
8:53 AM,60.1,57.0,90,29.87,6.0,SW,4.6,-,N/A,,Overcast,230,2013-10-17 12:53:00
9:31 AM,62.6,57.2,82,29.86,10.0,SW,5.8,-,N/A,,Mostly Cloudy,220,2013-10-17 13:31:00
9:53 AM,63.0,57.0,81,29.86,10.0,WSW,5.8,-,N/A,,Mostly Cloudy,240,2013-10-17 13:53:00
10:12 AM,64.4,57.2,77,29.86,10.0,SW,5.8,-,N/A,,Scattered Clouds,230,2013-10-17 14:12:00
10:53 AM,69.1,57.9,68,29.85,10.0,WSW,8.1,17.3,N/A,,Mostly Cloudy,240,2013-10-17 14:53:00
11:53 AM,66.9,57.9,73,29.84,10.0,WSW,8.1,-,N/A,,Overcast,240,2013-10-17 15:53:00
12:53 PM,68.0,57.9,70,29.82,10.0,WSW,6.9,-,N/A,,Overcast,240,2013-10-17 16:53:00
1:13 PM,69.8,57.2,64,29.81,10.0,WSW,10.4,-,N/A,,Partly Cloudy,240,2013-10-17 17:13:00
1:53 PM,69.1,57.9,68,29.81,10.0,SSW,10.4,-,N/A,,Mostly Cloudy,210,2013-10-17 17:53:00
2:05 PM,69.8,57.2,64,29.80,10.0,SW,10.4,-,N/A,,Mostly Cloudy,220,2013-10-17 18:05:00
2:53 PM,71.1,57.0,61,29.79,10.0,SSW,10.4,-,N/A,,Scattered Clouds,210,2013-10-17 18:53:00
3:53 PM,71.1,57.0,61,29.77,10.0,SSW,9.2,-,N/A,,Clear,210,2013-10-17 19:53:00
4:53 PM,70.0,57.0,63,29.76,10.0,WSW,9.2,-,N/A,,Clear,240,2013-10-17 20:53:00
5:53 PM,66.0,57.0,73,29.76,10.0,South,3.5,-,N/A,,Clear,180,2013-10-17 21:53:00
6:53 PM,62.1,57.0,84,29.78,10.0,SSW,4.6,-,N/A,,Clear,200,2013-10-17 22:53:00
7:53 PM,59.0,55.9,90,29.77,8.0,Calm,Calm,-,N/A,,Clear,0,2013-10-17 23:53:00
8:53 PM,57.9,57.0,97,29.77,6.0,Calm,Calm,-,N/A,,Clear,0,2013-10-18 00:53:00
9:46 PM,60.8,57.2,88,29.76,10.0,South,5.8,-,N/A,,Scattered Clouds,190,2013-10-18 01:46:00
9:53 PM,61.0,57.9,90,29.76,6.0,South,5.8,-,N/A,,Mostly Cloudy,190,2013-10-18 01:53:00
10:53 PM,61.0,59.0,93,29.74,5.0,South,6.9,-,N/A,,Overcast,190,2013-10-18 02:53:00
11:53 PM,62.1,59.0,90,29.73,5.0,Variable,5.8,-,0.01,Rain,Light Rain,0,2013-10-18 03:53:00